User: anonymous
Location: Ostrava
(49.8330°N, 18.2830°E)
Time: 23:13:32
(UTC+02:00)
Language:

Explorer 7 - Orbit

View from above orbital plane
View from above orbital plane
View from above satellite
View from above satellite

Ground track
Ground track

The orbit data is extracted from the following two-line orbital elements,

1 00022U 59009A   14293.45458909  .00005594  00000-0  48408-3 0   586
2 00022 050.2855 060.7862 0153188 297.5817 060.9641 14.89900068916327
Epoch (UTC): 20 October 2014 10:54:36
Eccentricity: 0.0153188
inclination: 50.2855°
perigee height: 491 km
apogee height: 705 km
right ascension of ascending node: 60.7862°
argument of perigee: 297.5817°
revolutions per day: 14.89900068
mean anomaly at epoch: 60.9641°
orbit number at epoch: 91632

The dashed part of the orbit path shows where the satellite is in the earth's shadow,  

DLR